Weather History for Lake Charles Regional, LA

Change the Weather History Date:

Wednesday, September 3, 2014

  Actual Average Record
Temperature  
Mean Temperature 83 °F 82 °F  
Max Temperature 91 °F 91 °F 103 °F (2000)
Min Temperature 75 °F 72 °F 62 °F (1915)
Degree Days  
Heating Degree Days 0 0  
Month to date heating degree days 0 0  
Since 1 July heating degree days 0 0  
Cooling Degree Days 18 17  
Month to date cooling degree days 55 51  
Year to date cooling degree days 2065 2180  
Growing Degree Days 33 (Base 50)    
Moisture  
Dew Point 74 °F    
Average Humidity 80    
Maximum Humidity 100    
Minimum Humidity 59    
Precipitation  
Precipitation 0.14 in 0.18 in 4.85 in (1988)
Month to date precipitation 0.56 0.55  
Year to date precipitation 52.63 38.77  
Snow  
Snow 0.00 in 0.00 in 0.00 in ()
Month to date snowfall 0.0 0.0  
Since 1 July snowfall 0.0 0.0  
Since 1 September snowfall 0.0 0.0  
Snow Depth 0.00 in    
Sea Level Pressure  
Sea Level Pressure 30.03 in    
Wind  
Wind Speed 5 mph (ESE)    
Max Wind Speed 25 mph    
Max Gust Speed 30 mph    
Visibility 9 miles    
Events Rain , Thunderstorm    
T = Trace of Precipitation, MM = Missing Value Source: NWS Daily Summary

Daily Weather History Graph

Daily Weather History Graph

Search for Another Location

Airport:

Trip Planner

Search our weather history database for the weather conditions in past years. The results will help you decide how hot, cold, wet, or windy it might be!

Date:

Astronomy

Sep. 03, 2014 Rise Set
Actual Time 6:50 AM CDT 7:33 PM CDT
Civil Twilight 6:26 AM CDT 7:57 PM CDT
Nautical Twilight 5:57 AM CDT 8:25 PM CDT
Astronomical Twilight 5:28 AM CDT 8:54 PM CDT
Moon 3:02 PM CDT (9/3) 12:58 AM CDT (9/3)
Length of Visible Light 13h 30m
Length of Day
12h 42m
Waxing Gibbous, 64% of the Moon is Illuminated
Sep 3
Waxing Gibbous
Sep 8
Full
Sep 15
Last Quarter
Sep 24
New
Oct 1
First Quarter

Hourly Weather History & Observations

Time (CDT) Temp. Heat Index Dew Point Humidity Pressure Visibility Wind Dir Wind Speed Gust Speed Precip Events Conditions
12:53 AM 78.1 °F - 75.9 °F 93% 30.01 in 10.0 mi NE 3.5 mph - N/A   Clear
1:53 AM 77.0 °F - 75.0 °F 94% 30.00 in 10.0 mi NE 5.8 mph - N/A   Scattered Clouds
2:53 AM 75.9 °F - 73.9 °F 94% 30.00 in 10.0 mi ENE 5.8 mph - N/A   Clear
3:53 AM 75.0 °F - 73.9 °F 96% 30.00 in 10.0 mi East 3.5 mph - N/A   Partly Cloudy
4:53 AM 75.9 °F - 73.9 °F 94% 30.00 in 10.0 mi East 4.6 mph - N/A   Clear
5:53 AM 75.9 °F - 73.9 °F 94% 30.01 in 10.0 mi East 4.6 mph - N/A   Clear
6:53 AM 75.9 °F - 75.0 °F 97% 30.02 in 10.0 mi East 5.8 mph - N/A   Clear
7:53 AM 77.0 °F - 75.0 °F 94% 30.04 in 10.0 mi NE 4.6 mph - N/A   Clear
8:33 AM 78.1 °F - 75.9 °F 93% 30.02 in 10.0 mi East 8.1 mph - 0.00 in Rain Light Rain
8:53 AM 79.0 °F - 75.9 °F 90% 30.05 in 10.0 mi East 5.8 mph - 0.00 in   Partly Cloudy
9:53 AM 81.0 °F 87.9 °F 77.0 °F 88% 30.06 in 10.0 mi ENE 6.9 mph - N/A   Clear
10:53 AM 87.1 °F 98.8 °F 77.0 °F 72% 30.07 in 10.0 mi SE 5.8 mph - N/A   Partly Cloudy
11:53 AM 88.0 °F 97.5 °F 75.0 °F 65% 30.07 in 10.0 mi SE 9.2 mph - N/A   Partly Cloudy
12:53 PM 90.0 °F 99.0 °F 73.9 °F 59% 30.06 in 10.0 mi SE 10.4 mph - N/A   Partly Cloudy
1:51 PM 89.6 °F 99.8 °F 75.2 °F 62% 30.02 in 10.0 mi Variable 6.9 mph - N/A Thunderstorm Scattered Clouds
1:53 PM 90.0 °F 100.2 °F 75.0 °F 61% 30.04 in 10.0 mi South 5.8 mph - N/A Thunderstorm Scattered Clouds
2:37 PM 82.0 °F 85.5 °F 69.1 °F 65% 30.03 in 10.0 mi SSE 24.2 mph 29.9 mph N/A   Mostly Cloudy
2:46 PM 75.9 °F - 71.1 °F 85% 30.03 in 4.0 mi SSE 21.9 mph 28.8 mph 0.00 in Rain , Thunderstorm Thunderstorms and Rain
2:49 PM 75.2 °F - 69.8 °F 83% 30.03 in 1.8 mi South 20.7 mph 28.8 mph 0.01 in Rain , Thunderstorm Heavy Thunderstorms and Rain
2:53 PM 75.0 °F - 68.0 °F 79% 30.06 in 1.2 mi South 9.2 mph 28.8 mph 0.07 in Rain , Thunderstorm Heavy Thunderstorms and Rain
3:02 PM 75.0 °F - 70.0 °F 84% 30.02 in 3.0 mi SSW 5.8 mph - 0.07 in Rain , Thunderstorm Light Thunderstorms and Rain
3:31 PM 80.1 °F 83.8 °F 72.0 °F 76% 30.00 in 10.0 mi North 3.5 mph - 0.07 in Thunderstorm Partly Cloudy
3:48 PM 82.4 °F 87.2 °F 71.6 °F 70% 29.99 in 10.0 mi Calm Calm - 0.07 in   Clear
3:53 PM 82.9 °F 88.0 °F 72.0 °F 69% 30.01 in 10.0 mi North 3.5 mph - 0.07 in   Clear
4:53 PM 86.0 °F 93.8 °F 73.9 °F 67% 30.00 in 10.0 mi Calm Calm - N/A   Clear
5:53 PM 87.1 °F 96.3 °F 75.0 °F 67% 29.99 in 10.0 mi South 4.6 mph - N/A   Clear
6:53 PM 84.9 °F 92.1 °F 73.9 °F 69% 30.01 in 10.0 mi South 6.9 mph - N/A   Clear
7:53 PM 82.0 °F 86.7 °F 72.0 °F 71% 30.02 in 10.0 mi South 4.6 mph - N/A   Clear
8:53 PM 79.0 °F - 75.0 °F 88% 30.03 in 10.0 mi Calm Calm - N/A   Clear
9:53 PM 79.0 °F - 75.0 °F 88% 30.04 in 10.0 mi Calm Calm - N/A   Clear
10:53 PM 78.1 °F - 75.9 °F 93% 30.04 in 10.0 mi ESE 3.5 mph - N/A   Clear
11:53 PM 78.1 °F - 75.0 °F 90% 30.04 in 10.0 mi ESE 6.9 mph - N/A   Clear